| time (UTC) | temp C | wind direction | speed KPH | gust KPH | rain 1hr cm | rain 24hr cm | rain mn cm | humidity % | barometer mb |
| 20260503033056 | 12 | 0 | 0.0 | 0.0 | 0.00 | 1.40 | 0.00 | 95 | 1013.0 |
| 20260503031553 | 12 | 0 | 0.0 | 1.6 | 0.00 | 1.40 | 0.00 | 95 | 1013.0 |
| 20260503030051 | 12 | 0 | 0.0 | 0.0 | 0.00 | 1.40 | 0.00 | 95 | 1013.1 |
| 20260503024551 | 12 | 0 | 0.0 | 1.6 | 0.00 | 1.40 | 0.00 | 95 | 1013.3 |
| 20260503023057 | 12 | 0 | 0.0 | 0.0 | 0.00 | 1.40 | 0.00 | 95 | 1013.3 |
| 20260503021549 | 12 | 0 | 0.0 | 0.0 | 0.00 | 1.40 | 0.00 | 95 | 1013.5 |
| 20260503020055 | 12 | 0 | 0.0 | 0.0 | 0.00 | 1.40 | 0.00 | 95 | 1013.5 |
| 20260503014603 | 12 | 0 | 0.0 | 1.6 | 0.00 | 1.40 | 0.00 | 95 | 1013.7 |
| 20260503013053 | 13 | 0 | 0.0 | 1.6 | 0.00 | 1.37 | 0.00 | 95 | 1013.7 |
| 20260503011552 | 13 | 0 | 0.0 | 1.6 | 0.00 | 1.37 | 0.00 | 95 | 1013.8 |
| 20260503010052 | 13 | 0 | 0.0 | 0.0 | 0.00 | 1.37 | 0.00 | 95 | 1013.9 |
| 20260503004548 | 13 | 0 | 0.0 | 1.6 | 0.00 | 1.37 | 0.00 | 95 | 1014.0 |
| 20260503003106 | 13 | 122 | 0.0 | 1.6 | 0.00 | 1.37 | 0.00 | 95 | 1014.1 |
| 20260503001607 | 13 | 0 | 0.0 | 0.0 | 0.00 | 1.37 | 0.00 | 95 | 1014.1 |
| 20260503000053 | 13 | 0 | 0.0 | 0.0 | 0.00 | 1.37 | 0.00 | 95 | 1014.2 |
| 20260502234553 | 13 | 0 | 0.0 | 0.0 | 0.00 | 1.37 | 0.00 | 95 | 1014.3 |
| 20260502233047 | 13 | 117 | 0.0 | 1.6 | 0.00 | 1.37 | 0.00 | 95 | 1014.3 |
| 20260502231555 | 14 | 0 | 0.0 | 0.0 | 0.00 | 1.37 | 0.00 | 95 | 1014.4 |
| 20260502230057 | 14 | 0 | 0.0 | 0.0 | 0.00 | 1.37 | 0.00 | 95 | 1014.5 |
| 20260502224557 | 13 | 0 | 0.0 | 1.6 | 0.00 | 1.37 | 0.00 | 95 | 1014.3 |
| 20260502223054 | 13 | 0 | 0.0 | 0.0 | 0.00 | 1.37 | 0.00 | 95 | 1014.4 |
| 20260502221552 | 14 | 0 | 0.0 | 0.0 | 0.00 | 1.37 | 0.00 | 95 | 1014.4 |
| 20260502220054 | 14 | 0 | 0.0 | 1.6 | 0.00 | 1.37 | 0.00 | 95 | 1014.3 |
| 20260502214600 | 14 | 0 | 0.0 | 1.6 | 0.00 | 1.37 | 1.37 | 95 | 1014.4 |
| 20260502213050 | 14 | 0 | 0.0 | 0.0 | 0.00 | 1.37 | 1.37 | 95 | 1014.3 |
| 20260502211549 | 14 | 0 | 0.0 | 0.0 | 0.00 | 1.37 | 1.37 | 95 | 1014.2 |
| 20260502210104 | 14 | 176 | 0.0 | 1.6 | 0.00 | 1.37 | 1.37 | 95 | 1014.4 |
| 20260502204548 | 14 | 0 | 0.0 | 0.0 | 0.00 | 1.37 | 1.37 | 95 | 1014.4 |
| 20260502203054 | 14 | 0 | 0.0 | 0.0 | 0.00 | 1.37 | 1.37 | 95 | 1014.2 |
| 20260502201607 | 14 | 0 | 0.0 | 0.0 | 0.00 | 1.37 | 1.37 | 94 | 1014.1 |
| 20260502200050 | 15 | 0 | 0.0 | 0.0 | 0.00 | 1.37 | 1.37 | 94 | 1013.8 |
| 20260502194551 | 15 | 0 | 0.0 | 0.0 | 0.00 | 1.37 | 1.37 | 94 | 1013.8 |
| 20260502193052 | 15 | 0 | 0.0 | 0.0 | 0.00 | 1.37 | 1.37 | 94 | 1013.5 |
| 20260502191550 | 15 | 0 | 0.0 | 0.0 | 0.00 | 1.37 | 1.37 | 94 | 1013.6 |
| 20260502190055 | 16 | 0 | 0.0 | 0.0 | 0.00 | 1.37 | 1.37 | 94 | 1013.7 |
| 20260502184604 | 16 | 0 | 0.0 | 0.0 | 0.00 | 1.37 | 1.37 | 94 | 1013.8 |
| 20260502183102 | 16 | 0 | 0.0 | 0.0 | 0.03 | 1.37 | 1.37 | 94 | 1013.8 |
| 20260502181605 | 16 | 0 | 0.0 | 0.0 | 0.05 | 1.37 | 1.37 | 94 | 1014.0 |
| 20260502163058 | 17 | 0 | 0.0 | 1.6 | 0.00 | 1.30 | 1.30 | 94 | 1014.0 |
| 20260502161553 | 16 | 0 | 0.0 | 1.6 | 0.03 | 1.30 | 1.30 | 94 | 1014.1 |
| 20260502151604 | 15 | 0 | 0.0 | 4.8 | 0.00 | 1.27 | 1.27 | 93 | 1014.1 |
| 20260502150105 | 15 | 65 | 1.6 | 6.4 | 0.00 | 1.24 | 1.24 | 93 | 1014.4 |
| 20260502123104 | 20 | 0 | 0.0 | 1.6 | 0.00 | 0.08 | 0.08 | 80 | 1015.4 |
| 20260502121556 | 20 | 0 | 0.0 | 1.6 | 0.00 | 0.08 | 0.08 | 82 | 1015.2 |
| 20260502114559 | 18 | 281 | 0.0 | 0.0 | 0.08 | 0.08 | 0.08 | 86 | 1015.7 |
| 20260502113055 | 18 | 0 | 0.0 | 1.6 | 0.08 | 0.08 | 0.08 | 86 | 1015.8 |
| 20260502111556 | 17 | 0 | 0.0 | 0.0 | 0.08 | 0.08 | 0.08 | 84 | 1016.5 |
| 20260502110058 | 17 | 0 | 0.0 | 1.6 | 0.00 | 0.00 | 0.00 | 82 | 1017.2 |
| 20260502104557 | 18 | 268 | 0.0 | 1.6 | 0.00 | 0.00 | 0.00 | 81 | 1017.2 |
| 20260502103101 | 18 | 0 | 0.0 | 1.6 | 0.00 | 0.00 | 0.00 | 78 | 1017.2 |
| 20260502101618 | 18 | 0 | 0.0 | 3.2 | 0.00 | 0.00 | 0.00 | 77 | 1017.3 |
| 20260502100118 | 18 | 193 | 0.0 | 6.4 | 0.00 | 0.00 | 0.00 | 76 | 1017.1 |
| 20260502080104 | 19 | 176 | 0.0 | 3.2 | 0.00 | 0.00 | 0.00 | 72 | 1017.2 |
| 20260502070055 | 18 | 0 | 0.0 | 3.2 | 0.00 | 0.00 | 0.00 | 73 | 1015.8 |
| 20260502064553 | 18 | 0 | 0.0 | 8.0 | 0.00 | 0.00 | 0.00 | 73 | 1016.0 |
| 20260502063052 | 18 | 33 | 1.6 | 8.0 | 0.00 | 0.00 | 0.00 | 73 | 1015.8 |
| 20260502061550 | 18 | 50 | 0.0 | 4.8 | 0.00 | 0.00 | 0.00 | 74 | 1015.7 |
| 20260502060056 | 17 | 120 | 0.0 | 1.6 | 0.00 | 0.00 | 0.00 | 74 | 1015.6 |
| 20260502054550 | 17 | 0 | 0.0 | 0.0 | 0.00 | 0.00 | 0.00 | 74 | 1015.7 |
| 20260502053108 | 18 | 0 | 0.0 | 1.6 | 0.00 | 0.00 | 0.00 | 73 | 1015.6 |
| 20260502051554 | 18 | 0 | 0.0 | 1.6 | 0.00 | 0.00 | 0.00 | 73 | 1015.7 |
| 20260502050056 | 18 | 0 | 0.0 | 1.6 | 0.00 | 0.00 | 0.00 | 73 | 1015.9 |
| 20260502044553 | 18 | 0 | 0.0 | 1.6 | 0.00 | 0.00 | 0.00 | 73 | 1015.8 |
| 20260502043058 | 18 | 0 | 0.0 | 1.6 | 0.00 | 0.00 | 0.00 | 73 | 1015.6 |
| 20260502041555 | 18 | 0 | 0.0 | 1.6 | 0.00 | 0.00 | 0.00 | 73 | 1015.9 |
| 20260502040054 | 18 | 0 | 0.0 | 1.6 | 0.00 | 0.00 | 0.00 | 73 | 1015.9 |
| 20260502034552 | 18 | 0 | 0.0 | 1.6 | 0.00 | 0.00 | 0.00 | 73 | 1016.0 |